Regional Weather Roundup
Issued by NWS Sterling, VA

Home | Current Version | Previous Version | Graphics & Text | Print | Product List | Glossary On
Versions: 1 2 3 4 5 6 7 8 9 10 11 12 13 14 15 16 17 18 19 20 21 22 23 24 25 26 27 28 29 30 31 32 33 34 35 36 37 38 39 40 41 42 43 44 45 46 47 48 49 50
000
ASUS41 KLWX 010910
RWRLWX

REGIONAL WEATHER ROUNDUP
NATIONAL WEATHER SERVICE BALTIMORE MD/WASHINGTON DC
400 AM EST SUN MAR 01 2015

Note: "FAIR" indicates few or no clouds below 12,000 feet
with no significant weather and/or obstructions to visibility.
 TC=TEMPERATURE CELSIUS

 * =Non NWS site. Station does not report precipitation (e.g. rain,
    snow, etc.), thunder, or fog.

DCZ001-MDZ009-015-VAZ040>042-051-053>054-011000-
WASHINGTON METRO

CITY           SKY/WX    TMP DP  RH WIND       PRES   REMARKS
WASHINGTON NAT CLOUDY    27  13  55 S5        30.68F
DULLES         CLOUDY    22  12  65 CALM      30.65F
ANDREWS AFB    CLOUDY    23  12  63 S5        30.68S
FT BELVOIR     MOCLDY    24  14  66 SE2       30.67F
QUANTICO       CLOUDY    26  13  57 SE6       30.68F
COLLEGE PARK*  CLOUDY    25  18  74 CALM      30.68F
LEESBURG*      CLOUDY    25  14  63 SE5       30.64F
MANASSAS*      CLOUDY    25  18  74 CALM      30.66F
GAITHERSBURG*  MOCLDY    21   9  58 CALM      30.67F

$$

MDZ006>007-011-014-011000-
BALTIMORE METRO

CITY           SKY/WX    TMP DP  RH WIND       PRES   REMARKS
BWI AIRPORT    MOCLDY    20  12  71 CALM      30.67F
MD SCIENCE CTR   N/A      1 N/A N/A MISG      30.69F
MARTIN STATE   MOCLDY    21  14  73 CALM      30.71F
ANNAPOLIS      CLOUDY    23  17  78 CALM      30.68F
FORT MEADE*    CLOUDY    19  12  73 CALM      30.70F

$$

MDZ012-015-019>023-011000-
MARYLAND EASTERN SHORE

CITY           SKY/WX    TMP DP  RH WIND       PRES   REMARKS
OCEAN CITY     PTCLDY    13  10  88 CALM      30.69F
SALISBURY      CLOUDY    18  12  77 CALM      30.69F
BAY BRIDGE AP*   N/A     25  18  74 CALM      30.69F
CAMBRIDGE*     CLOUDY    23  18  80 CALM      30.67F
EASTON*        MOCLDY    23  17  77 CALM      30.71F

$$

MDZ017>025-011000-
SOUTHERN MARYLAND

CITY           SKY/WX    TMP DP  RH WIND       PRES   REMARKS
PATUXENT RIVER CLOUDY    21  15  78 CALM      30.67F
ST INIGOES     CLEAR     17  11  77 CALM      30.67F
LEONARDTOWN*   CLOUDY    21  18  86 CALM      30.68F

$$

MDZ003>005-011000-
NORTH CENTRAL MARYLAND

CITY           SKY/WX    TMP DP  RH WIND       PRES   REMARKS
FREDERICK*     CLOUDY    19   9  63 CALM      30.68F
HAGERSTOWN APT CLOUDY    24   6  46 SE6       30.59F
WESTMINSTER*   MOCLDY    21   9  58 CALM      30.61F

$$

MDZ501>502-011000-
WESTERN MARYLAND

CITY           SKY/WX    TMP DP  RH WIND       PRES   REMARKS
OAKLAND*       CLOUDY    21  19  93 S7        30.38S
CUMBERLAND*    MOCLDY    27  10  50 CALM      30.59F

$$

VAZ025>031-011000-
SHENANDOAH VALLEY

CITY           SKY/WX    TMP DP  RH WIND       PRES   REMARKS
WINCHESTER*    CLOUDY    25   9  50 CALM      30.57F
FRONT ROYAL*   CLOUDY    21  12  68 CALM      30.57F
LURAY*         CLOUDY    28  18  64 S5        30.56F
NEW MARKET*    CLOUDY    19  12  73 CALM      30.55F
STAUNTON*      CLOUDY    25  11  57 S3        30.57F
WAYNESBORO*    CLOUDY    23  11  60 CALM      30.54F

$$

WVZ021-048>050-054>055-011000-
EASTERN WEST VIRGINIA PANHANDLE

CITY           SKY/WX    TMP DP  RH WIND       PRES   REMARKS
MARTINSBURG    CLOUDY    25  10  53 CALM      30.59F
PETERSBURG*    NOT AVBL

$$

VAZ036>039-050-011000-
CENTRAL FOOTHILLS

CITY           SKY/WX    TMP DP  RH WIND       PRES   REMARKS
CHARLOTTESVILL CLOUDY    23  12  62 S3        30.62F
CULPEPER*      MOCLDY    25  14  63 CALM      30.64F
ORANGE*        CLOUDY    25  18  74 CALM      30.65S
GORDONSVILLE*  CLOUDY    20  14  77 CALM      30.63S
WARRENTON*     CLOUDY    24  19  82 CALM      30.64F

$$

VAZ055>057-011000-
NORTH AND CENTRAL PIEDMONT

CITY           SKY/WX    TMP DP  RH WIND       PRES   REMARKS
FREDERICKSBRG* FAIR      25  18  74 CALM      30.66F
STAFFORD*      CLOUDY    24  12  61 CALM      30.69F

$$

NCZ024-NYZ072-PAZ021-071-VAZ022-071-011000-
OTHER REGIONAL OBSERVATIONS

CITY           SKY/WX    TMP DP  RH WIND       PRES   REMARKS
NEW YORK CITY  CLEAR     25  -1  32 CALM      30.69F
PHILADELPHIA   CLOUDY    23  13  65 SW3       30.72S
PITTSBURGH     LGT SNOW  20  17  88 SE7       30.43F VSB 1
ROANOKE        MOCLDY    27  11  51 CALM      30.59F
RICHMOND       MOCLDY    24  15  68 CALM      30.65F
RALEIGH        CLOUDY    31  16  54 NE5       30.60F

$$

ANZ530>537-011000-
MARINE OBSERVATIONS

STATION/POSITION TIME  TEMP    WIND        PRES
                       AIR SEA DIR/SP/G
                 (UTC) (F)     (DEG/KT/KT) (MB)
THOMAS PT LIGHT  0900   27 31  150/  4/  5 1040.0F
BALT KEY BRIDGE  0800   23      70/  2/  4 1040.1F
COVE POINT       0800   25     240/  1/  2 1039.3F
LEWISETTA        0800   20 34     CALM     1039.3F
SOLOMONS ISLAND  0806      32                N/A

$$



USA.gov is the U.S. government's official web portal to all federal, state and local government web resources and services.